Time,TemperatureF,DewpointF,PressureIn,WindDirection,WindDirectionDegrees,WindSpeedMPH,WindSpeedGustMPH,Humidity,HourlyPrecipIn,Conditions,Clouds,dailyrainin,SoftwareType,DateUTC
2013-05-02 00:00:00,63.2,57.6,30.26,NNE,26,5.0,11.0,82,0.00,,SKC,0.05,VWS V13.00,2013-05-02 04:00:00,
2013-05-02 00:01:00,63.1,57.5,30.26,NNE,33,10.0,11.0,82,0.00,,SKC,0.05,VWS V13.00,2013-05-02 04:01:00,
2013-05-02 00:05:00,63.2,57.6,30.26,NNE,19,8.0,16.0,82,0.00,,SKC,0.00,VWS V13.00,2013-05-02 04:05:00,
2013-05-02 00:06:00,63.2,57.6,30.26,North,9,5.0,16.0,82,0.00,,SKC,0.00,VWS V13.00,2013-05-02 04:06:00,
2013-05-02 00:10:00,63.2,57.6,30.26,NNE,26,7.0,11.0,82,0.00,,SKC,0.00,VWS V13.00,2013-05-02 04:10:00,
2013-05-02 00:11:00,63.2,57.6,30.26,NE,39,4.0,11.0,82,0.00,,SKC,0.00,VWS V13.00,2013-05-02 04:11:00,
2013-05-02 00:15:00,63.2,57.6,30.26,NNE,16,8.0,14.0,82,0.00,,SKC,0.00,VWS V13.00,2013-05-02 04:15:00,
2013-05-02 00:16:00,63.2,57.6,30.26,NE,56,4.0,14.0,82,0.00,,SKC,0.00,VWS V13.00,2013-05-02 04:16:00,
2013-05-02 00:20:00,63.1,57.5,30.26,ENE,58,0.0,11.0,82,0.00,,SKC,0.00,VWS V13.00,2013-05-02 04:20:00,
2013-05-02 00:21:00,63.1,57.5,30.26,ENE,58,0.0,11.0,82,0.00,,SKC,0.00,VWS V13.00,2013-05-02 04:21:00,
2013-05-02 00:25:00,63.1,57.5,30.26,NE,40,3.0,11.0,82,0.00,,SKC,0.00,VWS V13.00,2013-05-02 04:25:00,
2013-05-02 00:26:00,63.1,57.5,30.26,NNE,26,6.0,11.0,82,0.00,,SKC,0.00,VWS V13.00,2013-05-02 04:26:00,
2013-05-02 00:30:00,63.1,57.5,30.26,NE,56,5.0,11.0,82,0.00,,SKC,0.00,VWS V13.00,2013-05-02 04:30:00,
2013-05-02 00:31:00,63.1,57.5,30.26,North,5,10.0,11.0,82,0.00,,SKC,0.00,VWS V13.00,2013-05-02 04:31:00,
2013-05-02 00:35:00,63.1,57.5,30.26,NNE,28,5.0,10.0,82,0.00,,SKC,0.00,VWS V13.00,2013-05-02 04:35:00,
2013-05-02 00:36:00,63.1,57.5,30.26,NNE,32,3.0,10.0,82,0.00,,SKC,0.00,VWS V13.00,2013-05-02 04:36:00,
2013-05-02 00:40:00,63.1,57.5,30.26,North,355,5.0,10.0,82,0.00,,SKC,0.00,VWS V13.00,2013-05-02 04:40:00,
2013-05-02 00:41:00,63.1,57.5,30.26,NNE,23,3.0,10.0,82,0.00,,SKC,0.00,VWS V13.00,2013-05-02 04:41:00,
2013-05-02 00:45:00,63.1,57.5,30.26,North,355,3.0,11.0,82,0.00,,SKC,0.00,VWS V13.00,2013-05-02 04:45:00,
2013-05-02 00:46:00,63.1,57.5,30.26,North,5,2.0,11.0,82,0.00,,SKC,0.00,VWS V13.00,2013-05-02 04:46:00,
2013-05-02 00:50:00,63.0,57.4,30.26,NNE,23,8.0,13.0,82,0.00,,SKC,0.00,VWS V13.00,2013-05-02 04:50:00,
2013-05-02 00:51:00,63.0,57.4,30.26,NNE,29,6.0,13.0,82,0.00,,SKC,0.00,VWS V13.00,2013-05-02 04:51:00,
2013-05-02 00:55:00,62.9,57.7,30.26,NE,44,5.0,12.0,83,0.00,,SKC,0.00,VWS V13.00,2013-05-02 04:55:00,
2013-05-02 00:56:00,62.9,57.7,30.26,NE,38,9.0,12.0,83,0.00,,SKC,0.00,VWS V13.00,2013-05-02 04:56:00,
2013-05-02 01:00:00,62.9,57.7,30.26,NE,42,6.0,12.0,83,0.00,,SKC,0.00,VWS V13.00,2013-05-02 05:00:00,
2013-05-02 01:01:00,62.9,57.7,30.26,NE,34,9.0,12.0,83,0.00,,SKC,0.00,VWS V13.00,2013-05-02 05:01:00,
2013-05-02 01:05:00,62.8,57.6,30.26,NNE,22,3.0,11.0,83,0.00,,SKC,0.00,VWS V13.00,2013-05-02 05:05:00,
2013-05-02 01:06:00,62.8,57.6,30.26,ENE,59,7.0,11.0,83,0.00,,SKC,0.00,VWS V13.00,2013-05-02 05:06:00,
2013-05-02 01:10:00,62.7,57.5,30.26,NNE,25,6.0,13.0,83,0.00,,SKC,0.00,VWS V13.00,2013-05-02 05:10:00,
2013-05-02 01:11:00,62.7,57.5,30.26,NNE,24,8.0,13.0,83,0.00,,SKC,0.00,VWS V13.00,2013-05-02 05:11:00,
2013-05-02 01:15:00,62.6,57.4,30.26,North,350,4.0,12.0,83,0.00,,SKC,0.00,VWS V13.00,2013-05-02 05:15:00,
2013-05-02 01:16:00,62.6,57.4,30.26,NE,38,4.0,12.0,83,0.00,,SKC,0.00,VWS V13.00,2013-05-02 05:16:00,
2013-05-02 01:20:00,62.5,56.9,30.26,NNE,15,5.0,15.0,82,0.00,,SKC,0.00,VWS V13.00,2013-05-02 05:20:00,
2013-05-02 01:21:00,62.5,56.9,30.26,North,5,7.0,15.0,82,0.00,,SKC,0.00,VWS V13.00,2013-05-02 05:21:00,
2013-05-02 01:25:00,62.4,57.2,30.26,NNE,30,3.0,14.0,83,0.00,,SKC,0.00,VWS V13.00,2013-05-02 05:25:00,
2013-05-02 01:26:00,62.4,57.2,30.26,North,355,4.0,14.0,83,0.00,,SKC,0.00,VWS V13.00,2013-05-02 05:26:00,
2013-05-02 01:30:00,62.3,57.1,30.26,North,351,5.0,13.0,83,0.00,,SKC,0.00,VWS V13.00,2013-05-02 05:30:00,
2013-05-02 01:31:00,62.3,57.1,30.26,North,360,5.0,13.0,83,0.00,,SKC,0.00,VWS V13.00,2013-05-02 05:31:00,
2013-05-02 01:35:00,62.2,57.0,30.25,NNE,16,10.0,14.0,83,0.00,,SKC,0.00,VWS V13.00,2013-05-02 05:35:00,
2013-05-02 01:36:00,62.2,57.0,30.25,North,9,11.0,14.0,83,0.00,,SKC,0.00,VWS V13.00,2013-05-02 05:36:00,
2013-05-02 01:40:00,62.0,56.8,30.25,NNE,25,8.0,11.0,83,0.00,,SKC,0.00,VWS V13.00,2013-05-02 05:40:00,
2013-05-02 01:41:00,62.0,56.8,30.25,NNE,26,6.0,11.0,83,0.00,,SKC,0.00,VWS V13.00,2013-05-02 05:41:00,
2013-05-02 01:45:00,61.9,56.7,30.25,North,5,6.0,13.0,83,0.00,,SKC,0.00,VWS V13.00,2013-05-02 05:45:00,
2013-05-02 01:46:00,61.9,56.7,30.25,North,355,4.0,13.0,83,0.00,,SKC,0.00,VWS V13.00,2013-05-02 05:46:00,
2013-05-02 01:50:00,61.8,56.6,30.25,North,360,7.0,12.0,83,0.00,,SKC,0.00,VWS V13.00,2013-05-02 05:50:00,
2013-05-02 01:51:00,61.8,56.6,30.25,North,360,4.0,12.0,83,0.00,,SKC,0.00,VWS V13.00,2013-05-02 05:51:00,
2013-05-02 01:55:00,61.7,56.5,30.25,North,9,7.0,12.0,83,0.00,,SKC,0.00,VWS V13.00,2013-05-02 05:55:00,
2013-05-02 01:56:00,61.7,56.5,30.25,NNE,20,6.0,12.0,83,0.00,,SKC,0.00,VWS V13.00,2013-05-02 05:56:00,
2013-05-02 02:00:00,61.7,56.5,30.25,ENE,61,5.0,11.0,83,0.00,,SKC,0.00,VWS V13.00,2013-05-02 06:00:00,
2013-05-02 02:01:00,61.7,56.5,30.25,NNE,28,7.0,11.0,83,0.00,,SKC,0.00,VWS V13.00,2013-05-02 06:01:00,
2013-05-02 02:05:00,61.6,56.4,30.25,NNE,18,10.0,17.0,83,0.00,,SKC,0.00,VWS V13.00,2013-05-02 06:05:00,
2013-05-02 02:06:00,61.6,56.4,30.25,North,355,10.0,17.0,83,0.00,,SKC,0.00,VWS V13.00,2013-05-02 06:06:00,
2013-05-02 02:10:00,61.6,56.4,30.25,NNE,16,9.0,13.0,83,0.00,,SKC,0.00,VWS V13.00,2013-05-02 06:10:00,
2013-05-02 02:11:00,61.6,56.4,30.25,North,9,8.0,13.0,83,0.00,,SKC,0.00,VWS V13.00,2013-05-02 06:11:00,
2013-05-02 02:15:00,61.6,56.4,30.25,NNE,22,8.0,16.0,83,0.00,,SKC,0.00,VWS V13.00,2013-05-02 06:15:00,
2013-05-02 02:16:00,61.6,56.4,30.25,NNE,17,6.0,16.0,83,0.00,,SKC,0.00,VWS V13.00,2013-05-02 06:16:00,
2013-05-02 02:20:00,61.6,56.4,30.25,NNE,26,11.0,16.0,83,0.00,,SKC,0.00,VWS V13.00,2013-05-02 06:20:00,
2013-05-02 02:21:00,61.6,56.4,30.25,NE,45,8.0,16.0,83,0.00,,SKC,0.00,VWS V13.00,2013-05-02 06:21:00,
2013-05-02 02:25:00,61.6,56.4,30.24,NNE,32,7.0,13.0,83,0.00,,SKC,0.00,VWS V13.00,2013-05-02 06:25:00,
2013-05-02 02:26:00,61.6,56.4,30.24,North,355,8.0,13.0,83,0.00,,SKC,0.00,VWS V13.00,2013-05-02 06:26:00,
2013-05-02 02:30:00,61.7,56.5,30.24,NNE,23,10.0,13.0,83,0.00,,SKC,0.00,VWS V13.00,2013-05-02 06:30:00,
2013-05-02 02:31:00,61.6,56.4,30.24,NE,42,4.0,13.0,83,0.00,,SKC,0.00,VWS V13.00,2013-05-02 06:31:00,
2013-05-02 02:35:00,61.7,56.5,30.24,NNE,22,6.0,14.0,83,0.00,,SKC,0.00,VWS V13.00,2013-05-02 06:35:00,
2013-05-02 02:36:00,61.7,56.5,30.24,ENE,69,0.0,14.0,83,0.00,,SKC,0.00,VWS V13.00,2013-05-02 06:36:00,
2013-05-02 02:40:00,61.7,56.5,30.24,North,360,8.0,13.0,83,0.00,,SKC,0.00,VWS V13.00,2013-05-02 06:40:00,
2013-05-02 02:41:00,61.7,56.5,30.24,NE,40,11.0,13.0,83,0.00,,SKC,0.00,VWS V13.00,2013-05-02 06:41:00,
2013-05-02 02:45:00,61.8,56.6,30.24,NNE,30,7.0,13.0,83,0.00,,SKC,0.00,VWS V13.00,2013-05-02 06:45:00,
2013-05-02 02:46:00,61.8,56.6,30.24,North,5,4.0,13.0,83,0.00,,SKC,0.00,VWS V13.00,2013-05-02 06:46:00,
2013-05-02 02:50:00,61.8,56.6,30.24,North,351,7.0,12.0,83,0.00,,SKC,0.00,VWS V13.00,2013-05-02 06:50:00,
2013-05-02 02:51:00,61.8,56.6,30.24,NNE,26,6.0,12.0,83,0.00,,SKC,0.00,VWS V13.00,2013-05-02 06:51:00,
2013-05-02 02:55:00,61.9,56.7,30.24,NNE,15,5.0,13.0,83,0.00,,SKC,0.00,VWS V13.00,2013-05-02 06:55:00,
2013-05-02 02:56:00,61.9,56.7,30.24,NNE,24,7.0,13.0,83,0.00,,SKC,0.00,VWS V13.00,2013-05-02 06:56:00,
2013-05-02 03:00:00,61.9,56.7,30.24,NW,311,7.0,16.0,83,0.00,,SKC,0.00,VWS V13.00,2013-05-02 07:00:00,
2013-05-02 03:01:00,61.9,56.7,30.24,North,350,5.0,16.0,83,0.00,,SKC,0.00,VWS V13.00,2013-05-02 07:01:00,
2013-05-02 03:05:00,62.0,56.8,30.24,NE,51,5.0,14.0,83,0.00,,SKC,0.00,VWS V13.00,2013-05-02 07:05:00,
2013-05-02 03:06:00,62.0,56.8,30.24,North,355,3.0,14.0,83,0.00,,SKC,0.00,VWS V13.00,2013-05-02 07:06:00,
2013-05-02 03:10:00,62.0,56.8,30.24,NE,46,5.0,14.0,83,0.00,,SKC,0.00,VWS V13.00,2013-05-02 07:10:00,
2013-05-02 03:11:00,62.0,56.8,30.24,North,349,4.0,14.0,83,0.00,,SKC,0.00,VWS V13.00,2013-05-02 07:11:00,
2013-05-02 03:15:00,62.0,56.8,30.24,NNW,344,8.0,13.0,83,0.00,,SKC,0.00,VWS V13.00,2013-05-02 07:15:00,
2013-05-02 03:16:00,62.0,56.8,30.24,NE,42,10.0,13.0,83,0.00,,SKC,0.00,VWS V13.00,2013-05-02 07:16:00,
2013-05-02 03:20:00,62.1,56.9,30.24,NNE,28,6.0,21.0,83,0.00,,SKC,0.00,VWS V13.00,2013-05-02 07:20:00,
2013-05-02 03:21:00,62.1,56.9,30.24,ENE,64,5.0,21.0,83,0.00,,SKC,0.00,VWS V13.00,2013-05-02 07:21:00,
2013-05-02 03:25:00,62.1,56.9,30.24,NE,35,4.0,14.0,83,0.00,,SKC,0.00,VWS V13.00,2013-05-02 07:25:00,
2013-05-02 03:26:00,62.1,56.9,30.24,North,11,5.0,14.0,83,0.00,,SKC,0.00,VWS V13.00,2013-05-02 07:26:00,
2013-05-02 03:30:00,62.1,56.9,30.24,NNE,28,2.0,12.0,83,0.00,,SKC,0.00,VWS V13.00,2013-05-02 07:30:00,
2013-05-02 03:31:00,62.1,56.9,30.24,NNE,33,4.0,12.0,83,0.00,,SKC,0.00,VWS V13.00,2013-05-02 07:31:00,
2013-05-02 03:35:00,62.2,57.0,30.24,ESE,104,1.0,14.0,83,0.00,,SKC,0.00,VWS V13.00,2013-05-02 07:35:00,
2013-05-02 03:36:00,62.2,57.0,30.24,NE,46,2.0,14.0,83,0.00,,SKC,0.00,VWS V13.00,2013-05-02 07:36:00,
2013-05-02 03:40:00,62.2,57.0,30.24,ENE,58,5.0,11.0,83,0.00,,SKC,0.00,VWS V13.00,2013-05-02 07:40:00,
2013-05-02 03:41:00,62.2,57.0,30.24,North,355,9.0,11.0,83,0.00,,SKC,0.00,VWS V13.00,2013-05-02 07:41:00,
2013-05-02 03:45:00,62.2,57.0,30.24,NNE,19,7.0,12.0,83,0.00,,SKC,0.00,VWS V13.00,2013-05-02 07:45:00,
2013-05-02 03:46:00,62.2,57.0,30.24,NE,46,4.0,12.0,83,0.00,,SKC,0.00,VWS V13.00,2013-05-02 07:46:00,
2013-05-02 03:50:00,62.2,57.0,30.24,NNE,19,7.0,12.0,83,0.00,,SKC,0.00,VWS V13.00,2013-05-02 07:50:00,
2013-05-02 03:51:00,62.2,57.0,30.24,NNE,27,5.0,12.0,83,0.00,,SKC,0.00,VWS V13.00,2013-05-02 07:51:00,
2013-05-02 03:55:00,62.2,57.0,30.24,North,11,7.0,14.0,83,0.00,,SKC,0.00,VWS V13.00,2013-05-02 07:55:00,
2013-05-02 03:56:00,62.2,57.0,30.24,East,82,1.0,14.0,83,0.00,,SKC,0.00,VWS V13.00,2013-05-02 07:56:00,
2013-05-02 04:00:00,62.2,57.0,30.24,NNE,33,7.0,16.0,83,0.00,,SKC,0.00,VWS V13.00,2013-05-02 08:00:00,
2013-05-02 04:01:00,62.2,57.0,30.24,NNE,14,7.0,16.0,83,0.00,,SKC,0.00,VWS V13.00,2013-05-02 08:01:00,
2013-05-02 04:05:00,62.2,57.0,30.24,NE,36,8.0,10.0,83,0.00,,SKC,0.00,VWS V13.00,2013-05-02 08:05:00,
2013-05-02 04:06:00,62.2,57.0,30.24,NE,34,3.0,10.0,83,0.00,,SKC,0.00,VWS V13.00,2013-05-02 08:06:00,
2013-05-02 04:10:00,62.2,57.0,30.24,NE,51,5.0,12.0,83,0.00,,SKC,0.00,VWS V13.00,2013-05-02 08:10:00,
2013-05-02 04:11:00,62.2,57.0,30.24,North,355,6.0,12.0,83,0.00,,SKC,0.00,VWS V13.00,2013-05-02 08:11:00,
2013-05-02 04:15:00,62.1,56.9,30.24,NNE,19,6.0,16.0,83,0.00,,SKC,0.00,VWS V13.00,2013-05-02 08:15:00,
2013-05-02 04:16:00,62.1,56.9,30.24,NE,40,4.0,16.0,83,0.00,,SKC,0.00,VWS V13.00,2013-05-02 08:16:00,
2013-05-02 04:20:00,62.1,56.9,30.24,NNE,32,2.0,10.0,83,0.00,,SKC,0.00,VWS V13.00,2013-05-02 08:20:00,
2013-05-02 04:21:00,62.1,56.9,30.24,North,9,3.0,10.0,83,0.00,,SKC,0.00,VWS V13.00,2013-05-02 08:21:00,
2013-05-02 04:25:00,62.1,56.9,30.24,NE,56,5.0,12.0,83,0.00,,SKC,0.00,VWS V13.00,2013-05-02 08:25:00,
2013-05-02 04:26:00,62.1,56.9,30.24,NNE,31,3.0,12.0,83,0.00,,SKC,0.00,VWS V13.00,2013-05-02 08:26:00,
2013-05-02 04:30:00,62.1,56.9,30.24,NNW,344,5.0,10.0,83,0.00,,SKC,0.00,VWS V13.00,2013-05-02 08:30:00,
2013-05-02 04:31:00,62.1,56.9,30.24,NE,56,6.0,10.0,83,0.00,,SKC,0.00,VWS V13.00,2013-05-02 08:31:00,
2013-05-02 04:35:00,62.1,56.9,30.24,NNE,26,6.0,9.0,83,0.00,,SKC,0.00,VWS V13.00,2013-05-02 08:35:00,
2013-05-02 04:36:00,62.1,56.9,30.24,North,5,4.0,9.0,83,0.00,,SKC,0.00,VWS V13.00,2013-05-02 08:36:00,
2013-05-02 04:40:00,62.0,56.8,30.24,North,5,4.0,10.0,83,0.00,,SKC,0.00,VWS V13.00,2013-05-02 08:40:00,
2013-05-02 04:41:00,62.0,56.8,30.24,North,5,8.0,10.0,83,0.00,,SKC,0.00,VWS V13.00,2013-05-02 08:41:00,
2013-05-02 04:45:00,62.0,56.8,30.24,NNE,24,4.0,11.0,83,0.00,,SKC,0.00,VWS V13.00,2013-05-02 08:45:00,
2013-05-02 04:46:00,62.0,56.8,30.24,NE,38,2.0,11.0,83,0.00,,SKC,0.00,VWS V13.00,2013-05-02 08:46:00,
2013-05-02 04:50:00,62.0,56.8,30.24,North,5,6.0,8.0,83,0.00,,SKC,0.00,VWS V13.00,2013-05-02 08:50:00,
2013-05-02 04:51:00,62.0,56.8,30.24,NNE,26,6.0,8.0,83,0.00,,SKC,0.00,VWS V13.00,2013-05-02 08:51:00,
2013-05-02 04:55:00,62.0,56.8,30.24,NNE,14,4.0,11.0,83,0.00,,SKC,0.00,VWS V13.00,2013-05-02 08:55:00,
2013-05-02 04:56:00,62.0,56.8,30.24,North,5,6.0,11.0,83,0.00,,SKC,0.00,VWS V13.00,2013-05-02 08:56:00,
2013-05-02 05:00:00,62.0,56.8,30.24,NNE,22,10.0,10.0,83,0.00,,SKC,0.00,VWS V13.00,2013-05-02 09:00:00,
2013-05-02 05:01:00,62.0,56.8,30.24,North,355,5.0,10.0,83,0.00,,SKC,0.00,VWS V13.00,2013-05-02 09:01:00,
2013-05-02 05:05:00,62.0,56.8,30.24,ENE,61,2.0,11.0,83,0.00,,SKC,0.00,VWS V13.00,2013-05-02 09:05:00,
2013-05-02 05:06:00,62.0,56.8,30.24,ENE,62,2.0,11.0,83,0.00,,SKC,0.00,VWS V13.00,2013-05-02 09:06:00,
2013-05-02 05:10:00,61.9,56.7,30.24,North,360,5.0,11.0,83,0.00,,SKC,0.00,VWS V13.00,2013-05-02 09:10:00,
2013-05-02 05:11:00,61.9,56.7,30.24,NE,46,5.0,11.0,83,0.00,,SKC,0.00,VWS V13.00,2013-05-02 09:11:00,
2013-05-02 05:15:00,61.9,56.7,30.24,NE,40,5.0,8.0,83,0.00,,SKC,0.00,VWS V13.00,2013-05-02 09:15:00,
2013-05-02 05:16:00,61.9,56.7,30.24,NNE,23,1.0,8.0,83,0.00,,SKC,0.00,VWS V13.00,2013-05-02 09:16:00,
2013-05-02 05:20:00,61.9,56.7,30.24,NNW,344,7.0,12.0,83,0.00,,SKC,0.00,VWS V13.00,2013-05-02 09:20:00,
2013-05-02 05:21:00,61.9,56.7,30.24,NNE,28,8.0,11.0,83,0.00,,SKC,0.00,VWS V13.00,2013-05-02 09:21:00,
2013-05-02 05:25:00,61.9,56.7,30.24,NE,46,3.0,12.0,83,0.00,,SKC,0.00,VWS V13.00,2013-05-02 09:25:00,
2013-05-02 05:26:00,61.9,56.7,30.24,NNE,23,5.0,12.0,83,0.00,,SKC,0.00,VWS V13.00,2013-05-02 09:26:00,
2013-05-02 05:30:00,61.9,56.7,30.24,NNE,13,8.0,10.0,83,0.00,,SKC,0.00,VWS V13.00,2013-05-02 09:30:00,
2013-05-02 05:31:00,61.9,56.7,30.24,NE,50,7.0,8.0,83,0.00,,SKC,0.00,VWS V13.00,2013-05-02 09:31:00,
2013-05-02 05:35:00,61.9,56.7,30.24,NNW,342,3.0,12.0,83,0.00,,SKC,0.00,VWS V13.00,2013-05-02 09:35:00,
2013-05-02 05:36:00,61.8,56.6,30.24,NNW,346,5.0,12.0,83,0.00,,SKC,0.00,VWS V13.00,2013-05-02 09:36:00,
2013-05-02 05:40:00,61.8,56.6,30.24,NNW,336,9.0,14.0,83,0.00,,SKC,0.00,VWS V13.00,2013-05-02 09:40:00,
2013-05-02 05:41:00,61.8,56.6,30.24,NNW,340,8.0,14.0,83,0.00,,SKC,0.00,VWS V13.00,2013-05-02 09:41:00,
2013-05-02 05:45:00,61.8,56.6,30.24,NNE,27,3.0,9.0,83,0.00,,SKC,0.00,VWS V13.00,2013-05-02 09:45:00,
2013-05-02 05:46:00,61.8,56.6,30.24,North,11,6.0,9.0,83,0.00,,SKC,0.00,VWS V13.00,2013-05-02 09:46:00,
2013-05-02 05:50:00,61.8,56.6,30.24,NNE,16,8.0,11.0,83,0.00,,SKC,0.00,VWS V13.00,2013-05-02 09:50:00,
2013-05-02 05:51:00,61.8,56.6,30.24,NE,49,10.0,11.0,83,0.00,,SKC,0.00,VWS V13.00,2013-05-02 09:51:00,
2013-05-02 05:55:00,61.8,56.6,30.24,North,5,2.0,11.0,83,0.00,,SKC,0.00,VWS V13.00,2013-05-02 09:55:00,
2013-05-02 05:56:00,61.8,56.6,30.24,NNW,338,2.0,11.0,83,0.00,,SKC,0.00,VWS V13.00,2013-05-02 09:56:00,
2013-05-02 06:00:00,61.8,56.6,30.24,North,11,7.0,10.0,83,0.00,,SKC,0.00,VWS V13.00,2013-05-02 10:00:00,
2013-05-02 06:01:00,61.8,56.6,30.24,NNE,18,6.0,10.0,83,0.00,,SKC,0.00,VWS V13.00,2013-05-02 10:01:00,
2013-05-02 06:05:00,61.8,56.6,30.24,North,5,4.0,14.0,83,0.00,,SKC,0.00,VWS V13.00,2013-05-02 10:05:00,
2013-05-02 06:06:00,61.8,56.6,30.24,NNE,13,8.0,14.0,83,0.00,,SKC,0.00,VWS V13.00,2013-05-02 10:06:00,
2013-05-02 06:10:00,61.8,56.6,30.25,NNE,25,1.0,13.0,83,0.00,,SKC,0.00,VWS V13.00,2013-05-02 10:10:00,
2013-05-02 06:11:00,61.8,56.6,30.25,North,5,6.0,13.0,83,0.00,,SKC,0.00,VWS V13.00,2013-05-02 10:11:00,
2013-05-02 06:15:00,61.8,56.6,30.25,NE,42,0.0,8.0,83,0.00,,SKC,0.00,VWS V13.00,2013-05-02 10:15:00,
2013-05-02 06:16:00,61.8,56.6,30.25,East,80,5.0,8.0,83,0.00,,SKC,0.00,VWS V13.00,2013-05-02 10:16:00,
2013-05-02 06:20:00,61.8,56.6,30.25,North,10,1.0,8.0,83,0.00,,SKC,0.00,VWS V13.00,2013-05-02 10:20:00,
2013-05-02 06:21:00,61.8,56.6,30.25,NNE,28,3.0,8.0,83,0.00,,SKC,0.00,VWS V13.00,2013-05-02 10:21:00,
2013-05-02 06:25:00,61.8,56.6,30.25,NE,41,5.0,10.0,83,0.00,,SKC,0.00,VWS V13.00,2013-05-02 10:25:00,
2013-05-02 06:26:00,61.8,56.6,30.25,NNE,26,5.0,10.0,83,0.00,,SKC,0.00,VWS V13.00,2013-05-02 10:26:00,
2013-05-02 06:30:00,61.9,56.7,30.26,NE,51,3.0,10.0,83,0.00,,SKC,0.00,VWS V13.00,2013-05-02 10:30:00,
2013-05-02 06:31:00,61.9,56.7,30.26,NNE,32,6.0,10.0,83,0.00,,SKC,0.00,VWS V13.00,2013-05-02 10:31:00,
2013-05-02 06:35:00,61.9,56.7,30.26,NNE,24,5.0,12.0,83,0.00,,SKC,0.00,VWS V13.00,2013-05-02 10:35:00,
2013-05-02 06:36:00,61.9,56.7,30.26,NE,53,4.0,12.0,83,0.00,,SKC,0.00,VWS V13.00,2013-05-02 10:36:00,
2013-05-02 06:40:00,61.9,56.7,30.26,North,11,5.0,10.0,83,0.01,,SKC,0.01,VWS V13.00,2013-05-02 10:40:00,
2013-05-02 06:41:00,61.9,56.7,30.26,NNE,20,6.0,10.0,83,0.01,,SKC,0.01,VWS V13.00,2013-05-02 10:41:00,
2013-05-02 06:45:00,61.9,56.7,30.26,North,5,4.0,11.0,83,0.02,,SKC,0.02,VWS V13.00,2013-05-02 10:45:00,
2013-05-02 06:46:00,61.9,56.7,30.26,North,5,3.0,11.0,83,0.02,,SKC,0.02,VWS V13.00,2013-05-02 10:46:00,
2013-05-02 06:50:00,61.9,56.7,30.26,ENE,58,5.0,10.0,83,0.03,,SKC,0.03,VWS V13.00,2013-05-02 10:50:00,
2013-05-02 06:51:00,62.0,56.8,30.26,NNE,21,6.0,10.0,83,0.03,,SKC,0.03,VWS V13.00,2013-05-02 10:51:00,
2013-05-02 06:55:00,61.9,56.7,30.26,NE,51,5.0,8.0,83,0.04,,SKC,0.04,VWS V13.00,2013-05-02 10:55:00,
2013-05-02 06:56:00,61.9,56.7,30.26,East,81,4.0,8.0,83,0.04,,SKC,0.04,VWS V13.00,2013-05-02 10:56:00,
2013-05-02 07:00:00,61.9,56.7,30.26,North,5,3.0,8.0,83,0.04,,SKC,0.04,VWS V13.00,2013-05-02 11:00:00,
2013-05-02 07:01:00,61.9,56.7,30.26,NNE,18,3.0,8.0,83,0.04,,SKC,0.04,VWS V13.00,2013-05-02 11:01:00,
2013-05-02 07:05:00,61.9,56.7,30.26,NNE,26,6.0,9.0,83,0.04,,SKC,0.04,VWS V13.00,2013-05-02 11:05:00,
2013-05-02 07:06:00,61.9,56.7,30.26,NE,34,6.0,9.0,83,0.04,,SKC,0.04,VWS V13.00,2013-05-02 11:06:00,
2013-05-02 07:10:00,61.9,56.7,30.26,NNE,14,1.0,11.0,83,0.05,,SKC,0.05,VWS V13.00,2013-05-02 11:10:00,
2013-05-02 07:11:00,61.9,56.7,30.26,NNE,33,4.0,11.0,83,0.05,,SKC,0.05,VWS V13.00,2013-05-02 11:11:00,
2013-05-02 07:15:00,61.9,56.7,30.26,North,360,4.0,10.0,83,0.05,,SKC,0.05,VWS V13.00,2013-05-02 11:15:00,
2013-05-02 07:16:00,61.9,56.7,30.26,NNE,17,8.0,10.0,83,0.05,,SKC,0.05,VWS V13.00,2013-05-02 11:16:00,
2013-05-02 07:20:00,61.9,56.7,30.26,North,5,4.0,8.0,83,0.05,,SKC,0.05,VWS V13.00,2013-05-02 11:20:00,
2013-05-02 07:21:00,61.9,56.7,30.26,NNW,343,5.0,8.0,83,0.05,,SKC,0.05,VWS V13.00,2013-05-02 11:21:00,
2013-05-02 07:25:00,61.9,56.7,30.26,NNE,17,5.0,10.0,83,0.05,,SKC,0.05,VWS V13.00,2013-05-02 11:25:00,
2013-05-02 07:26:00,61.8,56.6,30.26,North,355,9.0,10.0,83,0.05,,SKC,0.05,VWS V13.00,2013-05-02 11:26:00,
2013-05-02 07:30:00,61.9,56.7,30.26,NE,44,6.0,11.0,83,0.05,,SKC,0.05,VWS V13.00,2013-05-02 11:30:00,
2013-05-02 07:31:00,61.9,56.7,30.26,North,360,5.0,11.0,83,0.05,,SKC,0.05,VWS V13.00,2013-05-02 11:31:00,
2013-05-02 07:35:00,61.9,56.7,30.26,NNE,17,8.0,12.0,83,0.05,,SKC,0.05,VWS V13.00,2013-05-02 11:35:00,
2013-05-02 07:36:00,61.9,56.7,30.26,NNE,30,7.0,11.0,83,0.05,,SKC,0.05,VWS V13.00,2013-05-02 11:36:00,
2013-05-02 07:40:00,61.8,56.6,30.26,NE,40,3.0,11.0,83,0.05,,SKC,0.05,VWS V13.00,2013-05-02 11:40:00,
2013-05-02 07:41:00,61.8,56.6,30.26,NNE,21,5.0,11.0,83,0.05,,SKC,0.05,VWS V13.00,2013-05-02 11:41:00,
2013-05-02 07:45:00,61.8,56.6,30.26,North,355,3.0,10.0,83,0.04,,SKC,0.05,VWS V13.00,2013-05-02 11:45:00,
2013-05-02 07:46:00,61.8,56.6,30.26,NE,38,3.0,10.0,83,0.04,,SKC,0.05,VWS V13.00,2013-05-02 11:46:00,
2013-05-02 07:50:00,61.8,56.6,30.26,NE,52,8.0,11.0,83,0.03,,SKC,0.05,VWS V13.00,2013-05-02 11:50:00,
2013-05-02 07:51:00,61.8,56.6,30.26,North,10,5.0,11.0,83,0.03,,SKC,0.05,VWS V13.00,2013-05-02 11:51:00,
2013-05-02 07:55:00,61.9,57.0,30.26,NNE,30,3.0,12.0,84,0.03,,SKC,0.06,VWS V13.00,2013-05-02 11:55:00,
2013-05-02 07:56:00,61.9,57.0,30.26,North,355,3.0,12.0,84,0.03,,SKC,0.06,VWS V13.00,2013-05-02 11:56:00,
2013-05-02 08:00:00,62.0,57.1,30.26,NNE,22,7.0,13.0,84,0.02,,SKC,0.06,VWS V13.00,2013-05-02 12:00:00,
2013-05-02 08:01:00,62.0,57.1,30.26,ENE,61,8.0,13.0,84,0.02,,SKC,0.06,VWS V13.00,2013-05-02 12:01:00,
2013-05-02 08:05:00,61.9,57.0,30.26,NNE,23,8.0,16.0,84,0.02,,SKC,0.06,VWS V13.00,2013-05-02 12:05:00,
2013-05-02 08:06:00,62.0,57.1,30.26,NE,35,8.0,16.0,84,0.02,,SKC,0.06,VWS V13.00,2013-05-02 12:06:00,
2013-05-02 08:10:00,61.9,57.0,30.26,NE,36,5.0,16.0,84,0.02,,SKC,0.06,VWS V13.00,2013-05-02 12:10:00,
2013-05-02 08:11:00,61.9,57.0,30.26,NE,40,5.0,16.0,84,0.02,,SKC,0.06,VWS V13.00,2013-05-02 12:11:00,
2013-05-02 08:15:00,61.9,57.0,30.26,NNW,346,3.0,14.0,84,0.01,,SKC,0.06,VWS V13.00,2013-05-02 12:15:00,
2013-05-02 08:16:00,61.9,57.0,30.26,NW,311,1.0,14.0,84,0.01,,SKC,0.06,VWS V13.00,2013-05-02 12:16:00,
2013-05-02 08:20:00,62.0,57.1,30.27,North,355,8.0,17.0,84,0.01,,SKC,0.06,VWS V13.00,2013-05-02 12:20:00,
2013-05-02 08:21:00,62.0,57.1,30.27,ENE,63,5.0,17.0,84,0.01,,SKC,0.06,VWS V13.00,2013-05-02 12:21:00,
2013-05-02 08:25:00,62.0,57.1,30.27,NNE,29,9.0,13.0,84,0.01,,SKC,0.06,VWS V13.00,2013-05-02 12:25:00,
2013-05-02 08:26:00,62.0,57.1,30.27,NNE,32,9.0,13.0,84,0.01,,SKC,0.06,VWS V13.00,2013-05-02 12:26:00,
2013-05-02 08:30:00,62.0,57.1,30.27,NE,54,2.0,12.0,84,0.01,,SKC,0.06,VWS V13.00,2013-05-02 12:30:00,
2013-05-02 08:31:00,62.0,57.1,30.27,NE,38,4.0,12.0,84,0.01,,SKC,0.06,VWS V13.00,2013-05-02 12:31:00,
2013-05-02 08:35:00,62.0,57.1,30.27,NNE,33,9.0,9.0,84,0.01,,SKC,0.06,VWS V13.00,2013-05-02 12:35:00,
2013-05-02 08:36:00,62.0,57.1,30.27,NE,38,3.0,8.0,84,0.01,,SKC,0.06,VWS V13.00,2013-05-02 12:36:00,
2013-05-02 08:40:00,62.1,57.2,30.27,North,360,8.0,13.0,84,0.01,,SKC,0.06,VWS V13.00,2013-05-02 12:40:00,
2013-05-02 08:41:00,62.1,57.2,30.27,NE,53,8.0,13.0,84,0.01,,SKC,0.06,VWS V13.00,2013-05-02 12:41:00,
2013-05-02 08:45:00,62.2,57.3,30.27,NNW,343,5.0,10.0,84,0.01,,SKC,0.06,VWS V13.00,2013-05-02 12:45:00,
2013-05-02 08:46:00,62.2,57.3,30.27,NNE,19,6.0,10.0,84,0.01,,SKC,0.06,VWS V13.00,2013-05-02 12:46:00,
2013-05-02 08:50:00,62.2,57.3,30.28,North,360,5.0,13.0,84,0.01,,SKC,0.06,VWS V13.00,2013-05-02 12:50:00,
2013-05-02 08:51:00,62.2,57.3,30.28,ENE,61,4.0,13.0,84,0.01,,SKC,0.06,VWS V13.00,2013-05-02 12:51:00,
2013-05-02 08:55:00,62.1,57.2,30.28,NNW,329,12.0,12.0,84,0.01,,SKC,0.06,VWS V13.00,2013-05-02 12:55:00,
2013-05-02 08:56:00,62.1,57.2,30.28,North,9,10.0,11.0,84,0.01,,SKC,0.06,VWS V13.00,2013-05-02 12:56:00,
2013-05-02 09:00:00,62.0,57.1,30.28,NNE,30,9.0,12.0,84,0.00,,SKC,0.06,VWS V13.00,2013-05-02 13:00:00,
2013-05-02 09:01:00,62.0,57.1,30.28,NNE,27,7.0,12.0,84,0.00,,SKC,0.06,VWS V13.00,2013-05-02 13:01:00,
2013-05-02 09:05:00,62.0,57.1,30.28,NNE,17,9.0,12.0,84,0.00,,SKC,0.06,VWS V13.00,2013-05-02 13:05:00,
2013-05-02 09:06:00,62.0,57.1,30.28,NNE,15,7.0,11.0,84,0.00,,SKC,0.06,VWS V13.00,2013-05-02 13:06:00,
2013-05-02 09:10:00,61.9,57.0,30.28,NNE,18,6.0,12.0,84,0.00,,SKC,0.06,VWS V13.00,2013-05-02 13:10:00,
2013-05-02 09:11:00,62.0,57.1,30.28,North,5,0.0,12.0,84,0.00,,SKC,0.06,VWS V13.00,2013-05-02 13:11:00,
2013-05-02 09:15:00,62.0,57.1,30.28,NNE,18,9.0,12.0,84,0.01,,SKC,0.07,VWS V13.00,2013-05-02 13:15:00,
2013-05-02 09:16:00,62.0,57.1,30.28,North,355,10.0,12.0,84,0.00,,SKC,0.07,VWS V13.00,2013-05-02 13:16:00,
2013-05-02 09:20:00,62.1,57.2,30.28,NNE,32,7.0,12.0,84,0.01,,SKC,0.07,VWS V13.00,2013-05-02 13:20:00,
2013-05-02 09:21:00,62.0,57.1,30.28,NNE,30,6.0,12.0,84,0.01,,SKC,0.07,VWS V13.00,2013-05-02 13:21:00,
2013-05-02 09:25:00,62.1,57.2,30.28,NNE,24,6.0,13.0,84,0.01,,SKC,0.07,VWS V13.00,2013-05-02 13:25:00,
2013-05-02 09:26:00,62.1,57.2,30.28,NE,38,4.0,13.0,84,0.01,,SKC,0.07,VWS V13.00,2013-05-02 13:26:00,
2013-05-02 09:30:00,62.2,57.3,30.29,North,5,6.0,11.0,84,0.01,,SKC,0.07,VWS V13.00,2013-05-02 13:30:00,
2013-05-02 09:31:00,62.2,57.3,30.28,NNE,19,2.0,11.0,84,0.01,,SKC,0.07,VWS V13.00,2013-05-02 13:31:00,
2013-05-02 09:35:00,62.2,57.3,30.28,NNE,15,6.0,14.0,84,0.01,,SKC,0.07,VWS V13.00,2013-05-02 13:35:00,
2013-05-02 09:36:00,62.2,57.3,30.28,North,360,3.0,14.0,84,0.01,,SKC,0.07,VWS V13.00,2013-05-02 13:36:00,
2013-05-02 09:40:00,62.3,57.4,30.29,NNE,12,5.0,11.0,84,0.01,,SKC,0.07,VWS V13.00,2013-05-02 13:40:00,
2013-05-02 09:41:00,62.2,57.3,30.28,North,360,6.0,11.0,84,0.01,,SKC,0.07,VWS V13.00,2013-05-02 13:41:00,
2013-05-02 09:45:00,62.2,57.3,30.29,East,94,7.0,12.0,84,0.01,,SKC,0.07,VWS V13.00,2013-05-02 13:45:00,
2013-05-02 09:46:00,62.2,57.3,30.29,NNE,33,5.0,12.0,84,0.01,,SKC,0.07,VWS V13.00,2013-05-02 13:46:00,
2013-05-02 09:50:00,62.3,57.4,30.29,North,5,4.0,11.0,84,0.01,,SKC,0.07,VWS V13.00,2013-05-02 13:50:00,
2013-05-02 09:51:00,62.3,57.4,30.29,NE,36,6.0,8.0,84,0.01,,SKC,0.07,VWS V13.00,2013-05-02 13:51:00,
2013-05-02 09:55:00,62.4,57.5,30.29,NE,42,0.0,12.0,84,0.01,,SKC,0.07,VWS V13.00,2013-05-02 13:55:00,
2013-05-02 09:56:00,62.4,57.5,30.29,NNE,17,6.0,12.0,84,0.01,,SKC,0.07,VWS V13.00,2013-05-02 13:56:00,
2013-05-02 10:00:00,62.3,57.4,30.29,ENE,57,3.0,11.0,84,0.01,,SKC,0.07,VWS V13.00,2013-05-02 14:00:00,
2013-05-02 10:01:00,62.3,57.4,30.29,North,5,9.0,11.0,84,0.01,,SKC,0.07,VWS V13.00,2013-05-02 14:01:00,
2013-05-02 10:05:00,62.3,57.4,30.29,NE,41,3.0,11.0,84,0.01,,SKC,0.07,VWS V13.00,2013-05-02 14:05:00,
2013-05-02 10:06:00,62.3,57.4,30.29,North,5,7.0,11.0,84,0.01,,SKC,0.07,VWS V13.00,2013-05-02 14:06:00,
2013-05-02 10:10:00,62.5,57.6,30.29,NE,42,6.0,9.0,84,0.01,,SKC,0.07,VWS V13.00,2013-05-02 14:10:00,
2013-05-02 10:11:00,62.5,57.6,30.29,North,5,5.0,9.0,84,0.01,,SKC,0.07,VWS V13.00,2013-05-02 14:11:00,
2013-05-02 10:15:00,62.6,57.7,30.29,NNW,331,5.0,10.0,84,0.01,,SKC,0.07,VWS V13.00,2013-05-02 14:15:00,
2013-05-02 10:16:00,62.6,57.7,30.29,NNE,15,6.0,10.0,84,0.01,,SKC,0.07,VWS V13.00,2013-05-02 14:16:00,
2013-05-02 10:20:00,62.8,57.9,30.29,NNE,14,9.0,10.0,84,0.00,,SKC,0.07,VWS V13.00,2013-05-02 14:20:00,
2013-05-02 10:21:00,62.8,57.9,30.29,North,11,8.0,9.0,84,0.00,,SKC,0.07,VWS V13.00,2013-05-02 14:21:00,
2013-05-02 10:25:00,62.7,57.8,30.29,NNE,25,4.0,11.0,84,0.00,,SKC,0.07,VWS V13.00,2013-05-02 14:25:00,
2013-05-02 10:26:00,62.7,57.8,30.29,East,86,3.0,11.0,84,0.00,,SKC,0.07,VWS V13.00,2013-05-02 14:26:00,
2013-05-02 10:30:00,62.9,58.0,30.29,NW,323,4.0,11.0,84,0.01,,SKC,0.08,VWS V13.00,2013-05-02 14:30:00,
2013-05-02 10:31:00,62.8,57.9,30.29,North,5,7.0,11.0,84,0.01,,SKC,0.08,VWS V13.00,2013-05-02 14:31:00,
2013-05-02 10:35:00,63.1,58.2,30.29,East,87,4.0,8.0,84,0.01,,SKC,0.08,VWS V13.00,2013-05-02 14:35:00,
2013-05-02 10:36:00,63.0,58.1,30.29,North,5,4.0,8.0,84,0.01,,SKC,0.08,VWS V13.00,2013-05-02 14:36:00,
2013-05-02 10:40:00,63.1,58.2,30.29,NE,36,6.0,12.0,84,0.01,,SKC,0.08,VWS V13.00,2013-05-02 14:40:00,
2013-05-02 10:41:00,63.1,58.2,30.29,NNE,19,8.0,12.0,84,0.01,,SKC,0.08,VWS V13.00,2013-05-02 14:41:00,
2013-05-02 10:45:00,63.1,58.2,30.29,ENE,63,6.0,11.0,84,0.01,,SKC,0.08,VWS V13.00,2013-05-02 14:45:00,
2013-05-02 10:46:00,63.1,58.2,30.29,NNW,346,7.0,10.0,84,0.01,,SKC,0.08,VWS V13.00,2013-05-02 14:46:00,
2013-05-02 10:50:00,63.3,58.4,30.29,NE,42,4.0,15.0,84,0.01,,SKC,0.08,VWS V13.00,2013-05-02 14:50:00,
2013-05-02 10:51:00,63.2,58.3,30.29,NE,56,2.0,15.0,84,0.01,,SKC,0.08,VWS V13.00,2013-05-02 14:51:00,
2013-05-02 10:55:00,63.3,58.4,30.29,North,9,2.0,9.0,84,0.01,,SKC,0.08,VWS V13.00,2013-05-02 14:55:00,
2013-05-02 10:56:00,63.3,58.4,30.29,North,5,3.0,9.0,84,0.01,,SKC,0.08,VWS V13.00,2013-05-02 14:56:00,
2013-05-02 11:00:00,63.5,58.6,30.29,NNE,22,7.0,9.0,84,0.01,,SKC,0.08,VWS V13.00,2013-05-02 15:00:00,
2013-05-02 11:01:00,63.4,58.5,30.29,North,355,3.0,9.0,84,0.01,,SKC,0.08,VWS V13.00,2013-05-02 15:01:00,
2013-05-02 11:05:00,63.4,58.5,30.29,NE,35,6.0,13.0,84,0.01,,SKC,0.08,VWS V13.00,2013-05-02 15:05:00,
2013-05-02 11:06:00,63.4,58.5,30.29,NE,38,13.0,13.0,84,0.01,,SKC,0.08,VWS V13.00,2013-05-02 15:06:00,
2013-05-02 11:10:00,63.3,58.4,30.29,NE,55,7.0,12.0,84,0.01,,SKC,0.08,VWS V13.00,2013-05-02 15:10:00,
2013-05-02 11:11:00,63.3,58.4,30.29,ENE,58,2.0,12.0,84,0.01,,SKC,0.08,VWS V13.00,2013-05-02 15:11:00,
2013-05-02 11:15:00,63.4,58.5,30.29,NNE,32,5.0,11.0,84,0.01,,SKC,0.08,VWS V13.00,2013-05-02 15:15:00,
2013-05-02 11:16:00,63.4,58.5,30.29,NE,35,4.0,11.0,84,0.01,,SKC,0.08,VWS V13.00,2013-05-02 15:16:00,
2013-05-02 11:20:00,63.4,58.5,30.29,NW,321,7.0,13.0,84,0.01,,SKC,0.08,VWS V13.00,2013-05-02 15:20:00,
2013-05-02 11:21:00,63.4,58.5,30.29,NE,54,4.0,13.0,84,0.01,,SKC,0.08,VWS V13.00,2013-05-02 15:21:00,
2013-05-02 11:25:00,63.4,58.5,30.29,East,80,8.0,12.0,84,0.01,,SKC,0.08,VWS V13.00,2013-05-02 15:25:00,
2013-05-02 11:26:00,63.4,58.5,30.29,NNE,12,11.0,12.0,84,0.01,,SKC,0.08,VWS V13.00,2013-05-02 15:26:00,
2013-05-02 11:30:00,63.2,58.3,30.29,ENE,65,5.0,13.0,84,0.01,,SKC,0.08,VWS V13.00,2013-05-02 15:30:00,
2013-05-02 11:31:00,63.2,58.3,30.29,NE,44,12.0,13.0,84,0.01,,SKC,0.08,VWS V13.00,2013-05-02 15:31:00,
2013-05-02 11:35:00,63.1,58.2,30.29,NNE,21,6.0,14.0,84,0.00,,SKC,0.08,VWS V13.00,2013-05-02 15:35:00,
2013-05-02 11:36:00,63.1,58.2,30.29,NNE,24,9.0,14.0,84,0.00,,SKC,0.08,VWS V13.00,2013-05-02 15:36:00,
2013-05-02 11:40:00,63.0,58.1,30.29,NE,49,5.0,15.0,84,0.01,,SKC,0.09,VWS V13.00,2013-05-02 15:40:00,
2013-05-02 11:41:00,63.0,58.1,30.29,NE,38,4.0,15.0,84,0.01,,SKC,0.09,VWS V13.00,2013-05-02 15:41:00,
2013-05-02 11:45:00,63.1,58.2,30.30,East,88,6.0,18.0,84,0.01,,SKC,0.09,VWS V13.00,2013-05-02 15:45:00,
2013-05-02 11:46:00,63.1,58.2,30.30,NNE,20,4.0,18.0,84,0.01,,SKC,0.09,VWS V13.00,2013-05-02 15:46:00,
2013-05-02 11:50:00,63.0,58.1,30.30,ENE,59,5.0,15.0,84,0.02,,SKC,0.10,VWS V13.00,2013-05-02 15:50:00,
2013-05-02 11:51:00,63.0,58.1,30.30,ENE,70,5.0,15.0,84,0.02,,SKC,0.10,VWS V13.00,2013-05-02 15:51:00,
2013-05-02 11:55:00,62.9,58.0,30.30,NE,49,6.0,17.0,84,0.03,,SKC,0.11,VWS V13.00,2013-05-02 15:55:00,
2013-05-02 11:56:00,62.9,58.0,30.30,NE,37,4.0,17.0,84,0.02,,SKC,0.10,VWS V13.00,2013-05-02 15:56:00,
2013-05-02 12:00:00,62.9,58.0,30.30,ENE,69,11.0,14.0,84,0.03,,SKC,0.11,VWS V13.00,2013-05-02 16:00:00,
2013-05-02 12:01:00,62.9,58.0,30.30,NE,43,9.0,14.0,84,0.03,,SKC,0.11,VWS V13.00,2013-05-02 16:01:00,
2013-05-02 12:05:00,62.7,57.8,30.29,NNE,19,3.0,14.0,84,0.03,,SKC,0.11,VWS V13.00,2013-05-02 16:05:00,
2013-05-02 12:06:00,62.8,57.9,30.29,ENE,66,8.0,14.0,84,0.03,,SKC,0.11,VWS V13.00,2013-05-02 16:06:00,
2013-05-02 12:10:00,62.8,57.9,30.29,NE,46,3.0,10.0,84,0.03,,SKC,0.11,VWS V13.00,2013-05-02 16:10:00,
2013-05-02 12:11:00,62.8,57.9,30.29,ENE,59,8.0,10.0,84,0.03,,SKC,0.11,VWS V13.00,2013-05-02 16:11:00,
2013-05-02 12:15:00,63.0,58.1,30.29,ENE,67,8.0,12.0,84,0.03,,SKC,0.11,VWS V13.00,2013-05-02 16:15:00,
2013-05-02 12:16:00,62.9,58.0,30.29,ENE,72,7.0,12.0,84,0.03,,SKC,0.11,VWS V13.00,2013-05-02 16:16:00,
2013-05-02 12:20:00,63.1,58.2,30.29,North,5,2.0,12.0,84,0.03,,SKC,0.11,VWS V13.00,2013-05-02 16:20:00,
2013-05-02 12:21:00,63.1,58.2,30.29,NE,38,8.0,12.0,84,0.03,,SKC,0.11,VWS V13.00,2013-05-02 16:21:00,
2013-05-02 12:25:00,63.1,58.2,30.29,ENE,57,4.0,11.0,84,0.03,,SKC,0.11,VWS V13.00,2013-05-02 16:25:00,
2013-05-02 12:26:00,63.1,58.2,30.29,NE,46,7.0,11.0,84,0.03,,SKC,0.11,VWS V13.00,2013-05-02 16:26:00,
2013-05-02 12:30:00,63.4,58.5,30.29,NE,41,7.0,14.0,84,0.03,,SKC,0.11,VWS V13.00,2013-05-02 16:30:00,
2013-05-02 12:31:00,63.3,58.4,30.28,NNE,33,7.0,14.0,84,0.03,,SKC,0.11,VWS V13.00,2013-05-02 16:31:00,
2013-05-02 12:35:00,63.4,58.5,30.29,NE,37,9.0,14.0,84,0.03,,SKC,0.11,VWS V13.00,2013-05-02 16:35:00,
2013-05-02 12:36:00,63.4,58.5,30.29,NE,55,6.0,14.0,84,0.03,,SKC,0.11,VWS V13.00,2013-05-02 16:36:00,
2013-05-02 12:40:00,63.6,58.7,30.29,NE,52,3.0,12.0,84,0.03,,SKC,0.11,VWS V13.00,2013-05-02 16:40:00,
2013-05-02 12:41:00,63.5,58.6,30.29,NE,44,5.0,12.0,84,0.03,,SKC,0.11,VWS V13.00,2013-05-02 16:41:00,
2013-05-02 12:45:00,64.2,59.3,30.29,NE,54,5.0,11.0,84,0.02,,SKC,0.11,VWS V13.00,2013-05-02 16:45:00,
2013-05-02 12:46:00,64.1,59.2,30.29,East,82,2.0,11.0,84,0.02,,SKC,0.11,VWS V13.00,2013-05-02 16:46:00,
2013-05-02 12:50:00,64.2,59.3,30.29,ENE,66,2.0,15.0,84,0.02,,SKC,0.11,VWS V13.00,2013-05-02 16:50:00,
2013-05-02 12:51:00,64.3,59.4,30.29,NE,46,11.0,15.0,84,0.02,,SKC,0.11,VWS V13.00,2013-05-02 16:51:00,
2013-05-02 12:55:00,64.3,59.4,30.29,East,84,0.0,11.0,84,0.01,,SKC,0.11,VWS V13.00,2013-05-02 16:55:00,
2013-05-02 12:56:00,64.2,59.3,30.29,NE,34,4.0,11.0,84,0.01,,SKC,0.11,VWS V13.00,2013-05-02 16:56:00,
2013-05-02 13:00:00,64.5,59.6,30.28,NE,40,1.0,12.0,84,0.00,,SKC,0.11,VWS V13.00,2013-05-02 17:00:00,
2013-05-02 13:01:00,64.5,59.6,30.28,ENE,63,3.0,12.0,84,0.00,,SKC,0.11,VWS V13.00,2013-05-02 17:01:00,
2013-05-02 13:05:00,65.1,60.2,30.28,ENE,78,7.0,12.0,84,0.00,,SKC,0.11,VWS V13.00,2013-05-02 17:05:00,
2013-05-02 13:06:00,65.0,60.0,30.28,ENE,76,5.0,12.0,84,0.00,,SKC,0.11,VWS V13.00,2013-05-02 17:06:00,
2013-05-02 13:10:00,65.1,60.2,30.28,ENE,59,6.0,14.0,84,0.00,,SKC,0.11,VWS V13.00,2013-05-02 17:10:00,
2013-05-02 13:11:00,65.1,60.2,30.28,ENE,62,5.0,14.0,84,0.00,,SKC,0.11,VWS V13.00,2013-05-02 17:11:00,
2013-05-02 13:15:00,65.5,60.5,30.28,NE,46,5.0,12.0,84,0.00,,SKC,0.11,VWS V13.00,2013-05-02 17:15:00,
2013-05-02 13:20:00,65.8,60.8,30.28,NE,53,5.0,11.0,84,0.00,,SKC,0.11,VWS V13.00,2013-05-02 17:20:00,
2013-05-02 13:25:00,65.9,60.9,30.28,ENE,66,7.0,13.0,84,0.00,,SKC,0.11,VWS V13.00,2013-05-02 17:25:00,
2013-05-02 13:30:00,65.9,60.9,30.28,East,81,7.0,15.0,84,0.00,,SKC,0.11,VWS V13.00,2013-05-02 17:30:00,
2013-05-02 13:35:00,65.6,60.6,30.28,ENE,72,5.0,17.0,84,0.00,,SKC,0.11,VWS V13.00,2013-05-02 17:35:00,
2013-05-02 13:40:00,65.8,60.8,30.28,ENE,71,6.0,12.0,84,0.00,,SKC,0.11,VWS V13.00,2013-05-02 17:40:00,
2013-05-02 13:45:00,65.7,60.4,30.28,NE,44,8.0,12.0,83,0.00,,SKC,0.11,VWS V13.00,2013-05-02 17:45:00,
2013-05-02 13:50:00,65.8,60.5,30.28,East,86,8.0,15.0,83,0.00,,SKC,0.11,VWS V13.00,2013-05-02 17:50:00,
2013-05-02 13:55:00,65.6,60.3,30.28,NE,44,12.0,19.0,83,0.00,,SKC,0.11,VWS V13.00,2013-05-02 17:55:00,
2013-05-02 14:00:00,65.4,60.1,30.28,NE,37,10.0,14.0,83,0.00,,SKC,0.11,VWS V13.00,2013-05-02 18:00:00,
2013-05-02 14:05:00,65.5,60.2,30.28,NE,42,7.0,17.0,83,0.00,,SKC,0.11,VWS V13.00,2013-05-02 18:05:00,
2013-05-02 14:10:00,65.6,60.3,30.28,East,87,13.0,19.0,83,0.00,,SKC,0.11,VWS V13.00,2013-05-02 18:10:00,
2013-05-02 14:15:00,65.5,60.2,30.28,East,97,11.0,19.0,83,0.00,,SKC,0.11,VWS V13.00,2013-05-02 18:15:00,
2013-05-02 14:20:00,65.5,60.2,30.28,ENE,71,4.0,17.0,83,0.00,,SKC,0.11,VWS V13.00,2013-05-02 18:20:00,
2013-05-02 14:25:00,65.8,60.5,30.27,East,80,4.0,13.0,83,0.00,,SKC,0.11,VWS V13.00,2013-05-02 18:25:00,
2013-05-02 14:30:00,66.1,60.8,30.27,ENE,57,5.0,15.0,83,0.00,,SKC,0.11,VWS V13.00,2013-05-02 18:30:00,
2013-05-02 14:35:00,66.2,60.5,30.27,NE,47,6.0,14.0,82,0.00,,SKC,0.11,VWS V13.00,2013-05-02 18:35:00,
2013-05-02 14:40:00,66.1,60.5,30.27,East,100,7.0,14.0,82,0.00,,SKC,0.11,VWS V13.00,2013-05-02 18:40:00,
2013-05-02 14:45:00,66.2,60.5,30.27,East,84,10.0,15.0,82,0.00,,SKC,0.11,VWS V13.00,2013-05-02 18:45:00,
2013-05-02 14:50:00,66.3,60.7,30.27,East,96,9.0,14.0,82,0.00,,SKC,0.11,VWS V13.00,2013-05-02 18:50:00,
2013-05-02 14:55:00,66.8,61.1,30.26,ENE,62,4.0,15.0,82,0.00,,SKC,0.11,VWS V13.00,2013-05-02 18:55:00,
2013-05-02 15:00:00,67.2,61.5,30.26,NE,51,12.0,12.0,82,0.00,,SKC,0.11,VWS V13.00,2013-05-02 19:00:00,
2013-05-02 15:05:00,67.5,61.8,30.26,East,80,8.0,17.0,82,0.00,,SKC,0.11,VWS V13.00,2013-05-02 19:05:00,
2013-05-02 15:10:00,67.5,61.5,30.26,NE,56,5.0,16.0,81,0.00,,SKC,0.11,VWS V13.00,2013-05-02 19:10:00,
2013-05-02 15:15:00,67.6,61.6,30.26,NE,36,11.0,14.0,81,0.00,,SKC,0.11,VWS V13.00,2013-05-02 19:15:00,
2013-05-02 15:20:00,68.1,62.1,30.26,NNE,13,7.0,17.0,81,0.00,,SKC,0.11,VWS V13.00,2013-05-02 19:20:00,
2013-05-02 15:25:00,68.5,62.5,30.26,NE,34,3.0,15.0,81,0.00,,SKC,0.11,VWS V13.00,2013-05-02 19:25:00,
2013-05-02 15:30:00,68.9,62.8,30.26,East,81,5.0,14.0,81,0.00,,SKC,0.11,VWS V13.00,2013-05-02 19:30:00,
2013-05-02 15:35:00,69.0,62.6,30.25,NNE,33,11.0,14.0,80,0.00,,SKC,0.11,VWS V13.00,2013-05-02 19:35:00,
2013-05-02 15:40:00,68.8,62.4,30.25,NE,55,5.0,18.0,80,0.00,,SKC,0.11,VWS V13.00,2013-05-02 19:40:00,
2013-05-02 15:45:00,68.8,62.4,30.25,ENE,59,5.0,17.0,80,0.00,,SKC,0.11,VWS V13.00,2013-05-02 19:45:00,
2013-05-02 15:50:00,68.7,62.3,30.25,NNE,27,5.0,9.0,80,0.00,,SKC,0.11,VWS V13.00,2013-05-02 19:50:00,
2013-05-02 15:55:00,68.8,62.4,30.25,North,5,5.0,12.0,80,0.00,,SKC,0.11,VWS V13.00,2013-05-02 19:55:00,
2013-05-02 16:00:00,68.8,62.4,30.25,NNE,26,3.0,14.0,80,0.00,,SKC,0.11,VWS V13.00,2013-05-02 20:00:00,
2013-05-02 16:05:00,68.6,62.2,30.25,NNE,17,10.0,15.0,80,0.00,,SKC,0.11,VWS V13.00,2013-05-02 20:05:00,
2013-05-02 16:10:00,68.6,62.2,30.25,NNE,20,7.0,14.0,80,0.00,,SKC,0.11,VWS V13.00,2013-05-02 20:10:00,
2013-05-02 16:15:00,68.4,61.6,30.25,North,5,10.0,17.0,79,0.00,,SKC,0.11,VWS V13.00,2013-05-02 20:15:00,
2013-05-02 16:20:00,68.1,61.3,30.25,NNE,19,7.0,17.0,79,0.00,,SKC,0.11,VWS V13.00,2013-05-02 20:20:00,
2013-05-02 16:25:00,67.9,61.2,30.25,NE,44,8.0,17.0,79,0.00,,SKC,0.11,VWS V13.00,2013-05-02 20:25:00,
2013-05-02 16:30:00,68.1,61.3,30.25,NNE,21,9.0,18.0,79,0.00,,SKC,0.11,VWS V13.00,2013-05-02 20:30:00,
2013-05-02 16:35:00,68.3,61.5,30.24,NNE,19,8.0,16.0,79,0.00,,SKC,0.11,VWS V13.00,2013-05-02 20:35:00,
2013-05-02 16:40:00,68.5,61.7,30.24,ENE,69,10.0,17.0,79,0.00,,SKC,0.11,VWS V13.00,2013-05-02 20:40:00,
2013-05-02 16:45:00,68.5,61.4,30.24,North,11,5.0,17.0,78,0.00,,SKC,0.11,VWS V13.00,2013-05-02 20:45:00,
2013-05-02 16:50:00,68.3,61.2,30.24,East,96,9.0,18.0,78,0.00,,SKC,0.11,VWS V13.00,2013-05-02 20:50:00,
2013-05-02 16:55:00,67.9,60.8,30.24,NNE,21,12.0,19.0,78,0.00,,SKC,0.11,VWS V13.00,2013-05-02 20:55:00,
2013-05-02 17:00:00,67.8,60.7,30.23,NNW,346,4.0,15.0,78,0.00,,SKC,0.11,VWS V13.00,2013-05-02 21:00:00,
2013-05-02 17:02:00,67.8,60.7,30.23,NNW,346,4.0,15.0,78,0.00,,SKC,0.11,VWS V13.00,2013-05-02 21:02:00,
2013-05-02 17:05:00,67.7,60.6,30.24,NNE,32,7.0,17.0,78,0.00,,SKC,0.11,VWS V13.00,2013-05-02 21:05:00,
2013-05-02 17:07:00,67.7,60.6,30.24,NE,46,6.0,11.0,78,0.00,,SKC,0.11,VWS V13.00,2013-05-02 21:07:00,
2013-05-02 17:10:00,67.7,61.0,30.24,NNE,27,3.0,12.0,79,0.00,,SKC,0.11,VWS V13.00,2013-05-02 21:10:00,
2013-05-02 17:12:00,67.7,60.6,30.24,NNE,17,5.0,9.0,78,0.00,,SKC,0.11,VWS V13.00,2013-05-02 21:12:00,
2013-05-02 17:15:00,67.7,60.6,30.23,ENE,67,4.0,13.0,78,0.00,,SKC,0.11,VWS V13.00,2013-05-02 21:15:00,
2013-05-02 17:17:00,67.7,60.6,30.24,NNE,23,5.0,7.0,78,0.00,,SKC,0.11,VWS V13.00,2013-05-02 21:17:00,
2013-05-02 17:20:00,67.8,61.1,30.23,NNW,346,3.0,12.0,79,0.00,,SKC,0.11,VWS V13.00,2013-05-02 21:20:00,
2013-05-02 17:22:00,67.8,61.1,30.23,East,94,8.0,8.0,79,0.00,,SKC,0.11,VWS V13.00,2013-05-02 21:22:00,
2013-05-02 17:25:00,67.8,60.7,30.23,North,360,2.0,17.0,78,0.00,,SKC,0.11,VWS V13.00,2013-05-02 21:25:00,
2013-05-02 17:27:00,67.7,60.6,30.23,East,87,5.0,5.0,78,0.00,,SKC,0.11,VWS V13.00,2013-05-02 21:27:00,
2013-05-02 17:30:00,67.6,60.5,30.23,NNE,26,15.0,15.0,78,0.00,,SKC,0.11,VWS V13.00,2013-05-02 21:30:00,
2013-05-02 17:32:00,67.6,60.5,30.23,NE,51,8.0,17.0,78,0.00,,SKC,0.11,VWS V13.00,2013-05-02 21:32:00,
2013-05-02 17:35:00,67.4,60.3,30.23,ENE,76,4.0,17.0,78,0.00,,SKC,0.11,VWS V13.00,2013-05-02 21:35:00,
2013-05-02 17:37:00,67.4,60.3,30.23,NE,51,6.0,7.0,78,0.00,,SKC,0.11,VWS V13.00,2013-05-02 21:37:00,
2013-05-02 17:40:00,67.2,60.1,30.22,North,355,4.0,12.0,78,0.00,,SKC,0.11,VWS V13.00,2013-05-02 21:40:00,
2013-05-02 17:42:00,67.2,60.1,30.23,NE,53,5.0,9.0,78,0.00,,SKC,0.11,VWS V13.00,2013-05-02 21:42:00,
2013-05-02 17:45:00,67.1,60.0,30.22,NE,36,10.0,14.0,78,0.00,,SKC,0.11,VWS V13.00,2013-05-02 21:45:00,
2013-05-02 17:47:00,67.1,60.0,30.22,NE,55,2.0,10.0,78,0.00,,SKC,0.11,VWS V13.00,2013-05-02 21:47:00,
2013-05-02 17:50:00,67.0,59.9,30.22,North,5,1.0,17.0,78,0.00,,SKC,0.11,VWS V13.00,2013-05-02 21:50:00,
2013-05-02 17:52:00,67.0,59.9,30.23,ENE,58,5.0,6.0,78,0.00,,SKC,0.11,VWS V13.00,2013-05-02 21:52:00,
2013-05-02 17:55:00,66.9,59.8,30.22,North,5,4.0,14.0,78,0.00,,SKC,0.11,VWS V13.00,2013-05-02 21:55:00,
2013-05-02 17:57:00,66.9,59.8,30.22,NNE,12,9.0,9.0,78,0.00,,SKC,0.11,VWS V13.00,2013-05-02 21:57:00,
2013-05-02 18:00:00,66.8,59.7,30.22,ENE,61,3.0,14.0,78,0.00,,SKC,0.11,VWS V13.00,2013-05-02 22:00:00,
2013-05-02 18:02:00,66.8,59.7,30.22,ESE,113,4.0,4.0,78,0.00,,SKC,0.11,VWS V13.00,2013-05-02 22:02:00,
2013-05-02 18:05:00,66.8,59.7,30.22,ENE,67,10.0,15.0,78,0.00,,SKC,0.11,VWS V13.00,2013-05-02 22:05:00,
2013-05-02 18:07:00,66.9,59.8,30.23,NE,34,2.0,10.0,78,0.00,,SKC,0.11,VWS V13.00,2013-05-02 22:07:00,
2013-05-02 18:10:00,66.8,59.7,30.23,NE,48,5.0,13.0,78,0.00,,SKC,0.11,VWS V13.00,2013-05-02 22:10:00,
2013-05-02 18:12:00,66.8,59.7,30.23,ENE,77,3.0,5.0,78,0.00,,SKC,0.11,VWS V13.00,2013-05-02 22:12:00,
2013-05-02 18:15:00,66.9,59.8,30.23,North,5,1.0,13.0,78,0.00,,SKC,0.11,VWS V13.00,2013-05-02 22:15:00,
2013-05-02 18:17:00,66.9,59.8,30.23,ESE,107,5.0,5.0,78,0.00,,SKC,0.11,VWS V13.00,2013-05-02 22:17:00,
2013-05-02 18:20:00,66.9,59.8,30.23,NE,46,11.0,17.0,78,0.00,,SKC,0.11,VWS V13.00,2013-05-02 22:20:00,
2013-05-02 18:22:00,66.8,59.7,30.23,East,80,5.0,15.0,78,0.00,,SKC,0.11,VWS V13.00,2013-05-02 22:22:00,
2013-05-02 18:25:00,66.6,59.5,30.22,East,96,2.0,15.0,78,0.00,,SKC,0.11,VWS V13.00,2013-05-02 22:25:00,
2013-05-02 18:27:00,66.6,59.5,30.22,NE,54,1.0,6.0,78,0.00,,SKC,0.11,VWS V13.00,2013-05-02 22:27:00,
2013-05-02 18:30:00,66.5,59.4,30.23,NE,39,11.0,14.0,78,0.00,,SKC,0.11,VWS V13.00,2013-05-02 22:30:00,
2013-05-02 18:32:00,66.5,59.4,30.23,East,87,7.0,15.0,78,0.00,,SKC,0.11,VWS V13.00,2013-05-02 22:32:00,
2013-05-02 18:35:00,66.2,59.2,30.22,East,86,3.0,15.0,78,0.00,,SKC,0.11,VWS V13.00,2013-05-02 22:35:00,
2013-05-02 18:37:00,66.2,59.2,30.22,ENE,63,5.0,5.0,78,0.00,,SKC,0.11,VWS V13.00,2013-05-02 22:37:00,
2013-05-02 18:40:00,66.0,59.0,30.22,NE,55,15.0,15.0,78,0.00,,SKC,0.11,VWS V13.00,2013-05-02 22:40:00,
2013-05-02 18:42:00,66.0,59.0,30.22,NE,42,10.0,15.0,78,0.00,,SKC,0.11,VWS V13.00,2013-05-02 22:42:00,
2013-05-02 18:45:00,65.6,58.6,30.22,NNE,12,4.0,15.0,78,0.00,,SKC,0.11,VWS V13.00,2013-05-02 22:45:00,
2013-05-02 18:47:00,65.6,58.2,30.22,NE,38,7.0,13.0,77,0.00,,SKC,0.11,VWS V13.00,2013-05-02 22:47:00,
2013-05-02 18:50:00,65.3,58.3,30.22,NNE,17,6.0,15.0,78,0.00,,SKC,0.11,VWS V13.00,2013-05-02 22:50:00,
2013-05-02 18:52:00,65.3,58.3,30.22,NNW,337,7.0,9.0,78,0.00,,SKC,0.11,VWS V13.00,2013-05-02 22:52:00,
2013-05-02 18:55:00,65.2,58.2,30.22,East,96,4.0,13.0,78,0.00,,SKC,0.11,VWS V13.00,2013-05-02 22:55:00,
2013-05-02 18:57:00,65.2,58.2,30.22,NE,53,2.0,4.0,78,0.00,,SKC,0.11,VWS V13.00,2013-05-02 22:57:00,
2013-05-02 19:00:00,65.1,58.1,30.22,NNE,23,7.0,14.0,78,0.00,,SKC,0.11,VWS V13.00,2013-05-02 23:00:00,
2013-05-02 19:02:00,65.0,58.0,30.22,North,360,6.0,13.0,78,0.00,,SKC,0.11,VWS V13.00,2013-05-02 23:02:00,
2013-05-02 19:05:00,65.0,58.0,30.22,East,80,7.0,15.0,78,0.00,,SKC,0.11,VWS V13.00,2013-05-02 23:05:00,
2013-05-02 19:07:00,64.9,57.9,30.22,NNE,17,9.0,12.0,78,0.00,,SKC,0.11,VWS V13.00,2013-05-02 23:07:00,
2013-05-02 19:10:00,64.7,57.7,30.22,North,11,9.0,21.0,78,0.00,,SKC,0.11,VWS V13.00,2013-05-02 23:10:00,
2013-05-02 19:12:00,64.7,57.7,30.22,East,93,8.0,10.0,78,0.00,,SKC,0.11,VWS V13.00,2013-05-02 23:12:00,
2013-05-02 19:15:00,64.5,57.5,30.22,NE,48,13.0,24.0,78,0.00,,SKC,0.11,VWS V13.00,2013-05-02 23:15:00,
2013-05-02 19:17:00,64.5,57.5,30.22,ENE,72,8.0,13.0,78,0.00,,SKC,0.11,VWS V13.00,2013-05-02 23:17:00,
2013-05-02 19:20:00,64.3,57.3,30.22,East,92,8.0,17.0,78,0.00,,SKC,0.11,VWS V13.00,2013-05-02 23:20:00,
2013-05-02 19:22:00,64.3,57.3,30.22,ENE,78,5.0,11.0,78,0.00,,SKC,0.11,VWS V13.00,2013-05-02 23:22:00,
2013-05-02 19:25:00,64.2,57.2,30.22,NNW,342,10.0,20.0,78,0.00,,SKC,0.11,VWS V13.00,2013-05-02 23:25:00,
2013-05-02 19:27:00,64.2,57.2,30.22,North,9,8.0,11.0,78,0.00,,SKC,0.11,VWS V13.00,2013-05-02 23:27:00,
2013-05-02 19:30:00,64.1,57.1,30.22,NE,55,3.0,12.0,78,0.00,,SKC,0.11,VWS V13.00,2013-05-02 23:30:00,
2013-05-02 19:32:00,64.1,57.1,30.22,NNE,30,5.0,7.0,78,0.00,,SKC,0.11,VWS V13.00,2013-05-02 23:32:00,
2013-05-02 19:35:00,63.9,56.9,30.22,NNE,15,7.0,14.0,78,0.00,,SKC,0.11,VWS V13.00,2013-05-02 23:35:00,
2013-05-02 19:37:00,63.9,56.9,30.22,NNE,32,7.0,7.0,78,0.00,,SKC,0.11,VWS V13.00,2013-05-02 23:37:00,
2013-05-02 19:40:00,63.8,56.8,30.23,NE,41,11.0,17.0,78,0.00,,SKC,0.11,VWS V13.00,2013-05-02 23:40:00,
2013-05-02 19:45:00,63.6,56.6,30.22,NE,40,7.0,16.0,78,0.00,,SKC,0.11,VWS V13.00,2013-05-02 23:45:00,
2013-05-02 19:50:00,63.5,56.5,30.22,East,84,6.0,16.0,78,0.00,,SKC,0.11,VWS V13.00,2013-05-02 23:50:00,
2013-05-02 19:55:00,63.4,56.4,30.23,East,94,4.0,13.0,78,0.00,,SKC,0.11,VWS V13.00,2013-05-02 23:55:00,
2013-05-02 20:00:00,63.3,56.3,30.23,NE,47,7.0,15.0,78,0.00,,SKC,0.11,VWS V13.00,2013-05-03 00:00:00,
2013-05-02 20:05:00,63.2,56.2,30.23,NE,43,7.0,14.0,78,0.00,,SKC,0.11,VWS V13.00,2013-05-03 00:05:00,
2013-05-02 20:10:00,63.1,56.1,30.23,NNE,28,10.0,15.0,78,0.00,,SKC,0.11,VWS V13.00,2013-05-03 00:10:00,
2013-05-02 20:15:00,63.0,56.0,30.23,NE,54,6.0,15.0,78,0.00,,SKC,0.11,VWS V13.00,2013-05-03 00:15:00,
2013-05-02 20:20:00,62.8,55.8,30.24,East,88,2.0,14.0,78,0.00,,SKC,0.11,VWS V13.00,2013-05-03 00:20:00,
2013-05-02 20:25:00,62.7,56.1,30.24,NE,43,5.0,13.0,79,0.00,,SKC,0.11,VWS V13.00,2013-05-03 00:25:00,
2013-05-02 20:30:00,62.6,56.0,30.24,NE,36,3.0,9.0,79,0.00,,SKC,0.11,VWS V13.00,2013-05-03 00:30:00,
2013-05-02 20:35:00,62.5,55.9,30.24,ENE,75,6.0,11.0,79,0.00,,SKC,0.11,VWS V13.00,2013-05-03 00:35:00,
2013-05-02 20:40:00,62.5,55.9,30.24,ENE,69,2.0,14.0,79,0.00,,SKC,0.11,VWS V13.00,2013-05-03 00:40:00,
2013-05-02 20:45:00,62.4,55.8,30.24,NE,45,5.0,13.0,79,0.00,,SKC,0.11,VWS V13.00,2013-05-03 00:45:00,
2013-05-02 20:50:00,62.3,55.7,30.25,North,5,2.0,11.0,79,0.00,,SKC,0.11,VWS V13.00,2013-05-03 00:50:00,
2013-05-02 20:55:00,62.1,55.5,30.25,NNE,33,8.0,13.0,79,0.00,,SKC,0.11,VWS V13.00,2013-05-03 00:55:00,
2013-05-02 21:00:00,62.0,55.4,30.25,NE,47,4.0,12.0,79,0.00,,SKC,0.11,VWS V13.00,2013-05-03 01:00:00,
2013-05-02 21:05:00,61.9,55.3,30.25,NNE,26,7.0,12.0,79,0.00,,SKC,0.11,VWS V13.00,2013-05-03 01:05:00,
2013-05-02 21:10:00,61.7,55.1,30.25,NNE,26,6.0,11.0,79,0.00,,SKC,0.11,VWS V13.00,2013-05-03 01:10:00,
2013-05-02 21:15:00,61.6,55.0,30.25,ENE,73,13.0,15.0,79,0.00,,SKC,0.11,VWS V13.00,2013-05-03 01:15:00,
2013-05-02 21:20:00,61.5,54.9,30.26,ENE,76,3.0,18.0,79,0.00,,SKC,0.11,VWS V13.00,2013-05-03 01:20:00,
2013-05-02 21:25:00,61.4,54.8,30.25,NE,37,13.0,13.0,79,0.00,,SKC,0.11,VWS V13.00,2013-05-03 01:25:00,
2013-05-02 21:30:00,61.4,54.8,30.25,NE,40,11.0,17.0,79,0.00,,SKC,0.11,VWS V13.00,2013-05-03 01:30:00,
2013-05-02 21:35:00,61.3,54.7,30.25,NE,38,7.0,15.0,79,0.00,,SKC,0.11,VWS V13.00,2013-05-03 01:35:00,
2013-05-02 21:40:00,61.2,54.6,30.25,East,91,6.0,16.0,79,0.00,,SKC,0.11,VWS V13.00,2013-05-03 01:40:00,
2013-05-02 21:45:00,61.1,54.5,30.24,ENE,67,8.0,19.0,79,0.00,,SKC,0.11,VWS V13.00,2013-05-03 01:45:00,
2013-05-02 21:50:00,61.1,54.5,30.24,ENE,64,8.0,17.0,79,0.00,,SKC,0.11,VWS V13.00,2013-05-03 01:50:00,
2013-05-02 21:55:00,61.1,54.5,30.24,North,5,2.0,15.0,79,0.00,,SKC,0.11,VWS V13.00,2013-05-03 01:55:00,
2013-05-02 22:00:00,61.0,54.5,30.24,NNE,28,8.0,13.0,79,0.00,,SKC,0.11,VWS V13.00,2013-05-03 02:00:00,
2013-05-02 22:05:00,61.0,54.5,30.24,NE,51,7.0,17.0,79,0.00,,SKC,0.11,VWS V13.00,2013-05-03 02:05:00,
2013-05-02 22:10:00,60.9,54.3,30.24,North,350,5.0,16.0,79,0.00,,SKC,0.11,VWS V13.00,2013-05-03 02:10:00,
2013-05-02 22:15:00,60.9,54.3,30.23,NNE,30,10.0,14.0,79,0.00,,SKC,0.11,VWS V13.00,2013-05-03 02:15:00,
2013-05-02 22:20:00,60.8,54.3,30.23,NNE,29,8.0,14.0,79,0.00,,SKC,0.11,VWS V13.00,2013-05-03 02:20:00,
2013-05-02 22:25:00,60.7,54.5,30.23,NNE,19,7.0,16.0,80,0.00,,SKC,0.11,VWS V13.00,2013-05-03 02:25:00,
2013-05-02 22:30:00,60.7,54.5,30.23,NE,34,7.0,12.0,80,0.00,,SKC,0.11,VWS V13.00,2013-05-03 02:30:00,
2013-05-02 22:35:00,60.6,54.4,30.24,NE,44,6.0,11.0,80,0.00,,SKC,0.11,VWS V13.00,2013-05-03 02:35:00,
2013-05-02 22:40:00,60.4,54.2,30.23,NNE,17,7.0,13.0,80,0.00,,SKC,0.11,VWS V13.00,2013-05-03 02:40:00,
2013-05-02 22:45:00,60.3,54.1,30.23,NNW,333,6.0,13.0,80,0.00,,SKC,0.11,VWS V13.00,2013-05-03 02:45:00,
2013-05-02 22:50:00,60.2,54.0,30.23,NNE,20,5.0,12.0,80,0.00,,SKC,0.11,VWS V13.00,2013-05-03 02:50:00,
2013-05-02 22:55:00,60.2,54.0,30.24,NE,51,3.0,11.0,80,0.00,,SKC,0.11,VWS V13.00,2013-05-03 02:55:00,
2013-05-02 23:00:00,60.1,53.9,30.24,North,350,7.0,8.0,80,0.00,,SKC,0.11,VWS V13.00,2013-05-03 03:00:00,
2013-05-02 23:05:00,60.0,53.8,30.24,NNE,32,2.0,10.0,80,0.00,,SKC,0.11,VWS V13.00,2013-05-03 03:05:00,
2013-05-02 23:10:00,59.8,53.6,30.24,NE,46,4.0,11.0,80,0.00,,SKC,0.11,VWS V13.00,2013-05-03 03:10:00,
2013-05-02 23:15:00,59.6,53.4,30.24,North,0,6.0,13.0,80,0.00,,SKC,0.11,VWS V13.00,2013-05-03 03:15:00,
2013-05-02 23:20:00,59.4,53.2,30.23,North,0,6.0,10.0,80,0.00,,SKC,0.11,VWS V13.00,2013-05-03 03:20:00,
2013-05-02 23:25:00,59.2,53.0,30.23,NNE,22,6.0,10.0,80,0.00,,SKC,0.11,VWS V13.00,2013-05-03 03:25:00,
2013-05-02 23:30:00,59.0,52.8,30.23,North,0,5.0,12.0,80,0.00,,SKC,0.11,VWS V13.00,2013-05-03 03:30:00,
2013-05-02 23:35:00,59.0,52.8,30.23,North,0,5.0,11.0,80,0.00,,SKC,0.11,VWS V13.00,2013-05-03 03:35:00,
2013-05-02 23:40:00,59.0,52.8,30.23,NNE,22,5.0,12.0,80,0.00,,SKC,0.11,VWS V13.00,2013-05-03 03:40:00,
2013-05-02 23:45:00,59.0,52.8,30.23,North,0,6.0,10.0,80,0.00,,SKC,0.11,VWS V13.00,2013-05-03 03:45:00,
2013-05-02 23:50:00,58.9,52.8,30.23,North,0,7.0,13.0,80,0.00,,SKC,0.11,VWS V13.00,2013-05-03 03:50:00,
2013-05-02 23:55:00,58.7,52.6,30.22,North,0,8.0,13.0,80,0.00,,SKC,0.11,VWS V13.00,2013-05-03 03:55:00,